Orbital elements:
    C/2009 F5 (McNaught)
Epoch 2008 Oct. 21.0 TT = JDT 2454760.5
T 2008 Nov. 4.80576 TT                                  MPC
q   2.2451333            (2000.0)            P               Q
z  +0.0125361      Peri.  297.35604     -0.40571390     -0.66428386
 +/-0.0000413      Node   219.06524     +0.14155524     -0.72424230
e   0.9718549      Incl.   84.98490     -0.90297195     +0.18493255
Residuals in seconds of arc
090320 E12  0.1+  0.6-    090422 585  0.5+  0.0     090514 585  0.2-  0.2+
090320 E12  0.2+  0.1-    090422 585 (0.5+  2.3+)   090514 585  0.2-  0.3-
090320 E12  0.5-  0.6-    090422 585  0.1-  0.1+    090515 J75  0.8+  0.7-
090320 E12  0.4+  0.1-    090422 585  0.1+  0.5+    090515 J75  0.1+  1.2-
090321 854  0.1-  0.1+    090422 585  0.1+  0.8+    090515 J75  1.1-  1.7-
090321 854  0.2+  0.4-    090422 585  0.4+  0.6+    090516 J24  0.2+  1.5+
090321 854  0.1-  0.1-    090422 900  0.0   0.1+    090516 J24  0.1+  0.8+
090321 474  0.0   0.2-    090422 900  0.4+  0.7+    090516 J24  0.3-  1.4+
090321 474  0.1-  0.4-    090422 J59  0.7+  0.1-    090516 467  0.2-  0.3-
090321 474  0.5+  0.1+    090422 J59  0.1-  0.7-    090516 467  0.1+  0.5-
090321 E12  0.0   0.6-    090423 J51  0.0   0.3+    090516 H10  0.4+  0.8-
090321 E12  0.0   0.5-    090423 J51  0.1-  0.0     090516 467  0.3+  0.5-
090322 808  0.3+  1.3-    090423 J51  0.0   0.2-    090516 H10  0.2+  0.7-
090322 808 (2.6-  1.0+)   090423 J96  0.2+  0.1-    090516 H10  0.4+  0.7-
090322 808  0.9-  1.0+    090423 J96  0.2+  0.2-    090516 235  0.6-  0.0
090322 808  0.3-  0.2+    090423 J96  0.1+  0.3-    090516 B26  0.3-  0.5-
090322 808  0.2+  0.3-    090423 423  0.2-  0.3+    090516 B74  0.1+  0.0
090322 H06  0.5+  0.3-    090423 423  0.0   0.3+    090516 B74  0.2+  0.6+
090322 673  0.5+  0.2-    090424 J40  0.3-  1.7+    090516 B74  0.9+  1.0+
090322 673  0.4+  0.3-    090424 J40  0.6-  1.3+    090517 J75  0.4+  0.8-
090322 673  0.1-  0.2-    090424 A77  0.0   0.0     090517 J75  0.4+  2.0-
090322 673  0.4-  0.0     090424 A77  0.6+  0.5-    090517 J75  0.0   1.7-
090322 H06  0.0   0.3-    090424 A77  0.2+  0.3-    090518 J75  0.5+  0.6-
090322 474  0.3+  0.1+    090424 J40  0.9-  1.3+    090518 J75  0.2-  1.3-
090322 474  0.5+  0.1+    090425 235  0.0   0.2-    090518 J75  0.0   0.2+
090322 474  0.2-  0.1+    090425 473  0.1-  0.4+    090518 585  0.1-  0.4-
090322 E16  0.0   0.0     090425 473  0.1+  0.3+    090518 585  0.4+  0.3+
090322 E16  0.2-  0.0     090426 423  0.3-  0.2-    090518 585  0.2+  0.3-
090322 E16  0.0   0.2-    090426 423  0.3-  0.2-    090518 585  0.1-  0.0
090322 E12  0.3+  0.5-    090427 473  0.0   0.3+    090518 585  0.6+  0.2+
090322 E16  0.1-  0.6+    090427 473  0.0   0.3+    090518 585  0.1+  0.9+
090322 E16  0.6-  0.6+    090427 212  0.3-  0.3+    090518 585  0.8+  0.2+
090326 349  0.3-  1.0+    090427 212  0.5+  0.2+    090518 585  0.2-  0.3-
090326 349  0.5-  1.3+    090427 212  0.2-  0.0     090518 585  0.1-  0.5-
090326 349  0.0   1.5+    090427 349  0.2+  0.3-    090518 585  0.3-  0.2+
090327 467  0.3-  0.5-    090427 349  0.0   0.4-    090518 585  0.1-  0.0
090327 467  0.7+  0.2-    090427 585 (2.7+  1.2+)   090518 585  0.8+  0.5-
090327 467  0.5+  0.3-    090427 585  1.2-  0.4+    090518 J47  0.7-  0.4-
090328 I36  0.1+  0.2-    090427 585  0.3-  0.8+    090518 J47  0.8-  0.2-
090328 I36  0.0   0.1-    090427 585  0.0   0.2+    090518 J47  1.1-  1.1+
090328 I36  0.1-  0.1-    090427 585  0.8+  0.6-    090519 J24  0.6-  1.3+
090328 I20  0.2-  0.4-    090427 585  0.1-  0.4-    090519 J24  0.2-  0.8+
090328 423  0.1-  0.1-    090428 585  0.1+  0.6+    090519 B74  0.4-  0.3+
090328 423  0.7-  0.1+    090428 585  0.7+  0.3+    090519 B74  0.3-  0.5+
090328 467  0.1+  0.2-    090428 585  0.7+  1.5-    090519 J24  0.4-  0.4+
090328 467  0.0   0.2-    090428 585  0.3+  0.6-    090519 B74 (0.2+  2.1+)
090328 467  0.1-  0.0     090428 585  0.9+  0.3-    090519 585  0.4-  0.6-
090328 349  0.1-  1.1+    090428 585  0.7+  0.8-    090519 585  0.7-  0.0
090328 349  0.1+  0.8+    090428 585  0.4+  0.2+    090519 585  0.2-  0.6-
090329 423  0.3-  0.1-    090428 585  0.3-  0.1-    090519 585  0.4-  0.2-
090329 423  0.6-  0.4+    090428 585  1.1+  0.5+    090519 215  0.2-  0.1+
090329 467  0.0   0.1-    090429 E85  0.3-  0.1+    090519 585  0.2+  0.3-
090329 467  0.1+  0.1-    090429 E85  0.2-  0.0     090519 215  0.3-  0.1+
090329 467  0.4-  0.2+    090429 E85  0.2-  0.1+    090519 215  0.3-  0.1+
090329 E12  0.0   0.1-    090429 367  0.4+  0.1+    090519 585  0.4+  0.4+
090402 467  0.1+  0.3-    090429 367  0.3+  0.1+    090519 585  0.1-  0.5+
090402 467  0.1-  0.1-    090429 367  0.6+  0.3-    090519 585  0.2+  0.1+
090402 467  0.0   0.6-    090429 900  0.3+  0.2-    090519 585  0.6+  0.6+
090402 900  0.3-  0.2-    090429 900  0.4-  0.2-    090519 585  1.5-  0.5-
090402 900  0.1-  0.2-    090429 349  0.2+  0.2-    090520 A77  0.8+  0.4+
090402 349  0.6-  1.1-    090429 349  0.3+  0.2-    090520 A77  1.3+  0.4-
090402 349  0.4-  0.9-    090429 349  0.4+  0.1-    090520 A77  0.7+  0.1-
090402 E12  0.1-  0.0     090429 194  0.3-  0.6-    090521 B40  1.0-  0.4-
090403 585  0.4+  2.0+    090429 194  0.5-  0.5-    090521 B40  1.7-  0.7-
090403 585  0.9+  1.5+    090501 J59  0.1-  0.1-    090522 808  0.1-  0.4-
090403 585  0.9-  1.7+    090501 J59  0.2+  0.2-    090522 808  1.6-  1.4+
090403 585  0.1-  1.4+    090501 J59  0.4+  0.5-    090522 808  0.4-  0.5+
090403 585  0.1-  0.4-    090502 J59  0.2-  0.4-    090522 349  0.3+  0.8-
090403 585 (0.7-  2.1+)   090502 J59  0.2-  0.2-    090522 349  0.1+  1.1-
090403 585  1.6+  1.0+    090502 J59  0.1+  0.1+    090522 349  0.2-  0.7-
090403 585 (2.7+  2.6+)   090502 J51  0.2-  0.4+    090523 808  0.5-  0.2-
090403 349  0.7-  0.4-    090502 J51  0.2-  0.1-    090523 808  0.6-  0.2-
090403 349  0.1-  1.0-    090502 J51  0.1-  0.5-    090523 808  0.1-  0.1-
090403 349  0.6-  1.1-    090503 J53  0.6-  1.7+    090523 473  0.2+  0.0
090405 423  0.5-  0.1+    090503 J53  0.3-  0.8+    090523 J47  0.3+  0.2-
090405 423  0.6-  0.2+    090503 J53  0.2-  0.0     090523 J47  0.2+  0.1-
090407 204  0.3+  0.4+    090503 704  0.7+  0.2+    090523 J47  0.3+  0.1+
090409 E85  0.6+  0.2-    090503 704  1.6+  0.4-    090523 212  0.4-  0.1+
090409 E85  0.2+  0.3-    090503 704  1.8+  1.1-    090523 212  0.1+  0.1+
090409 E85  0.1+  1.2-    090503 704  0.9+  0.5+    090523 212  0.1-  0.0
090409 349  0.8+  0.0     090503 704  0.9+  0.2+    090524 I19  0.1-  0.1-
090409 349  0.8+  0.0     090503 E85  0.5-  0.0     090524 J24  0.8-  1.4+
090409 349  0.5+  0.3+    090503 E85  0.1-  0.4-    090524 J24  0.2-  0.8+
090413 204  0.3+  0.4+    090503 E85  0.1-  0.3-    090524 I19  0.2+  0.4-
090413 808  1.6-  0.8-    090503 E16  0.2-  0.4-    090524 J24  0.5+  0.5+
090413 808  0.1+  0.2-    090503 E16  0.3+  0.9-    090524 I19  0.4-  0.1-
090413 808  1.3-  1.9+    090503 B70  0.4-  0.8-    090524 J46  0.3-  0.6-
090414 E94  1.1+  0.4-    090503 B70  1.1-  0.6+    090524 J46  0.2-  0.7-
090414 E94  0.0   0.4-    090503 B70  0.0   0.4+    090524 J46  0.4+  0.7-
090414 E94  0.6-  0.5+    090503 J10 (0.0   2.5-)   090525 J46  0.3-  0.4+
090414 585 (1.6+  3.6+)   090503 J10  0.2+  0.5-    090525 J46  0.1+  0.2+
090414 585 (0.1-  3.0-)   090503 J10  0.4+  1.7-    090525 J46  0.3+  0.1+
090414 585  0.3+  1.3-    090504 204  0.2+  0.2-    090525 B09  0.4-  0.6+
090414 585 (0.6-  3.2-)   090504 J51  0.2+  0.0     090525 J51  0.7-  0.8+
090415 E85  0.0   0.5+    090504 J51  0.6+  0.0     090525 J51  0.2+  0.3+
090415 E85  0.1-  0.2-    090504 J51  0.2+  0.2+    090525 J51  1.9+  0.8-
090415 E85  0.4-  0.2-    090504 204  0.1-  0.2-    090525 B09  0.2+  0.1-
090415 423  0.6-  0.3+    090505 E12  0.1-  0.1-    090526 A79  0.4+  0.3+
090415 423  0.7+  0.6+    090509 J24  1.4-  1.3+    090526 A79  0.5+  0.8+
090415 349  1.1+  0.3+    090509 J24  0.2+  0.6+    090526 A79  0.1+  0.1+
090415 349  1.3+  0.4+    090509 J24  1.1-  0.4-    090526 A79  0.0   0.1+
090415 349  0.9+  0.6+    090511 J31  0.4-  0.4+    090527 J51  0.0   0.5+
090416 I32  0.6-  0.0     090511 J31  0.7-  0.4+    090527 J08  0.8+  0.3+
090416 I32  1.9-  0.4-    090511 J31  0.6-  0.7+    090527 J51  0.4+  0.4+
090416 I32  0.7-  1.0-    090513 673  0.7+  0.1+    090527 J51  0.1+  0.5+
090416 423  0.4-  0.1+    090513 673  0.2+  0.6+    090528 H45  0.2-  0.1+
090416 423  0.1-  0.2+    090513 673  0.2+  0.4+    090528 H45  0.1+  0.1-
090416 E12  0.1+  0.1-    090513 673  0.3+  0.1+    090528 H45  0.1+  0.5+
090416 E12  0.1+  0.1-    090513 367  0.1-  0.5-    090528 H45  0.0   0.5+
090418 213  0.3-  0.3-    090513 367  0.4+  0.4-    090528 H45  0.1-  0.3-
090418 213  0.1+  0.4-    090513 367  0.4+  0.4-    090528 H45  0.3-  0.8+
090418 213  0.1-  0.4-    090513 900  0.3-  0.2-    090528 E85  0.1-  0.0
090419 I32  0.5-  0.5+    090513 900  0.1+  0.1-    090528 E85  0.2-  0.2+
090420 I32  0.8+  1.2-    090514 E85  0.0   0.2-    090528 E85  0.5-  0.2+
090420 I32  0.3+  0.4-    090514 E85  0.4+  0.4-    090528 A77  0.5+  0.5+
090421 415  0.2+  0.1-    090514 E85  0.1+  0.0     090528 A77  0.3+  0.3+
090421 415  0.2+  0.6-    090514 473  0.3+  0.3+    090528 A77  0.7+  0.0
090421 046  0.7+  0.4+    090514 473  0.0   0.3+    090529 A16  0.2+  0.6-
090421 046  0.5-  0.1+    090514 585  1.6-  1.6+    090529 A16  0.6+  0.2-
090421 046  0.3+  0.6+    090514 585  1.4-  1.6+    090529 A16  0.0   0.1-
090421 046  0.3-  0.1+    090514 585  0.2-  0.1-    090529 A16  0.5+  0.2-
090421 046  0.1-  0.5-    090514 585  1.6-  0.2+    090529 A16  0.7+  1.5-
090421 046  0.7-  0.0     090514 J53  0.4-  1.0+    090530 467  0.2-  0.1-
090422 585  0.1-  0.1+    090514 585  0.8+  1.0-    090530 467  0.2+  0.0
090422 585  0.1+  0.4+    090514 J53  0.4-  0.2+    090530 467  0.1-  0.4-
090422 585  0.2+  0.6-    090514 585  0.3-  1.4+    090601 900  0.0   1.6-
090422 585  0.1+  0.3-    090514 J53  0.2-  0.5+    090601 900  0.4+  0.1+

